Temperature
12 12 13 13 11 10 11 12 13 15 16 18 19 19 19 19 19 19 19 20 20 19 18 18 18 18 18 18 17 17 17 17 16 16 16 16 16 16 16 16 16 16 16 16 16 16 16 16 16
12 12 12 12 10 10 10 11 13 14 16 18 18 19 19 19 19 19 19 19 19 19 18 18 17 17 18 17 17 17 17 16 16 16 16 16 16 16 16 16 16 16 16 16 16 16 16 16 16
11 12 12 9 9 10 11 12 13 15 16 17 18 18 19 19 18 18 19 19 19 19 18 18 17 17 17 17 17 17 16 16 16 16 16 16 16 16 16 16 17 16 16 16 16 16 16 16 16
11 11 11 9 9 10 11 12 13 13 15 17 17 17 18 18 18 18 19 19 19 18 18 18 17 17 17 17 17 16 16 16 16 16 16 16 16 16 16 16 16 16 16 17 16 16 16 16 16
10 10 8 8 9 10 11 12 13 12 14 15 16 16 17 17 17 18 18 18 18 18 18 17 17 17 17 17 17 16 16 16 16 16 16 16 16 16 16 16 16 16 16 16 16 16 16 16 16
10 8 7 8 9 10 11 13 13 12 13 15 15 15 16 16 17 17 17 17 17 17 17 17 17 17 17 17 16 16 16 16 16 16 16 16 16 16 16 16 16 16 16 16 16 16 16 16 16
8 7 7 8 9 10 11 13 13 12 12 14 15 15 16 16 16 16 16 16 17 17 17 17 16 16 16 16 16 16 16 16 16 16 16 16 16 16 16 16 16 16 16 16 16 16 16 16 15
9 7 7 7 8 9 11 12 13 12 12 14 14 14 14 15 15 15 16 16 16 16 16 16 16 16 16 16 16 16 16 16 16 16 16 16 16 16 16 16 16 16 16 16 16 16 16 16 15
9 6 6 7 9 10 11 11 11 12 12 13 13 13 14 14 15 15 15 15 15 15 16 16 16 16 16 16 15 15 15 15 15 16 16 15 15 16 16 16 16 16 16 16 16 16 16 15 15
8 5 6 8 9 9 10 10 10 11 11 11 12 13 13 14 14 14 14 15 15 15 15 15 15 15 15 15 15 15 15 15 15 15 15 15 15 16 16 16 16 16 16 16 16 16 16 15 15
7 6 7 9 10 10 9 10 10 10 10 11 11 12 13 13 13 13 13 14 15 15 15 15 15 15 15 15 15 15 15 15 15 15 15 15 15 15 15 15 16 16 16 16 16 16 15 15 15
7 7 8 9 9 9 9 9 10 10 10 11 11 12 12 12 12 13 13 13 14 14 14 14 14 14 15 15 15 15 15 15 15 15 15 15 15 15 15 15 15 15 15 16 16 16 15 15 15
7 7 8 8 8 9 9 9 9 9 10 11 11 11 11 12 12 12 13 13 13 14 14 14 14 14 14 14 14 14 15 15 15 15 15 15 15 15 15 15 15 15 15 15 15 15 15 15 15
7 7 7 8 8 8 8 8 8 9 10 11 11 11 11 12 12 12 12 13 13 13 13 14 14 14 14 14 14 14 14 14 14 14 14 15 15 15 15 15 15 15 15 15 15 15 15 15 15
7 6 6 7 8 8 8 8 8 10 10 10 10 11 11 11 12 12 12 13 13 13 13 13 13 13 14 14 14 14 14 14 14 14 14 14 15 15 15 15 15 15 15 15 15 15 15 14 14
6 6 5 7 8 8 8 7 9 10 10 10 10 10 11 11 11 12 12 12 12 13 13 13 13 13 13 13 13 14 14 14 14 14 14 14 14 15 15 15 15 15 15 15 15 15 14 14 14
5 5 5 6 8 8 7 7 8 9 9 9 9 10 10 10 11 11 12 12 12 13 13 13 13 13 13 13 13 13 13 13 14 14 14 14 14 14 15 15 15 15 15 14 14 14 14 14 14
5 5 6 6 7 7 7 7 8 9 9 9 9 10 10 10 11 11 11 12 12 12 12 12 12 12 12 13 13 13 13 13 13 13 14 14 14 14 14 15 15 14 14 14 14 14 14 14 14
6 6 6 6 7 7 7 7 8 9 9 8 9 9 9 10 11 11 11 11 12 12 12 12 12 12 12 12 12 13 13 13 13 13 13 14 13 14 14 14 14 14 14 14 14 14 14 13 13
6 6 6 7 7 8 7 7 8 8 8 9 9 9 9 10 10 10 11 11 11 11 11 12 12 12 12 12 12 12 13 13 13 13 13 13 13 13 13 14 14 14 14 14 14 14 13 13 13
6 6 6 6 7 7 7 7 7 8 8 9 9 9 9 9 10 10 11 11 11 11 11 11 12 12 12 12 12 12 12 12 12 13 13 13 13 13 13 13 14 14 14 14 14 13 13 13 13
6 7 7 7 7 6 7 6 7 7 8 8 8 8 8 9 9 10 10 10 11 11 11 11 11 11 12 12 12 12 12 12 12 12 12 12 13 13 13 13 13 13 13 13 13 13 13 13 13
7 8 7 7 7 6 6 6 6 7 7 8 7 8 8 9 9 9 10 10 10 10 11 11 11 11 11 11 11 11 11 12 12 12 12 12 12 12 12 12 12 13 13 13 13 13 13 13 13
8 7 7 7 6 6 7 6 6 6 7 7 7 7 8 8 8 9 9 10 10 10 10 10 10 11 11 11 11 11 11 11 11 11 12 12 12 12 12 12 12 12 12 12 12 12 12 12 12
7 6 6 6 6 6 7 7 6 7 7 7 7 7 7 8 8 8 9 9 9 10 10 10 10 10 11 11 11 11 11 11 11 11 11 11 11 11 12 12 12 12 12 12 12 12 12 12 12
7 7 6 7 7 7 7 7 6 7 7 7 7 7 7 7 7 8 8 9 9 9 9 10 10 10 10 10 10 10 11 11 11 11 11 11 11 11 11 11 11 11 11 11 12 12 12 12 12
7 7 7 6 6 6 6 6 7 7 7 7 7 7 7 7 7 7 8 8 8 9 9 9 10 10 10 10 10 10 10 10 10 10 11 11 11 11 11 11 11 11 11 11 11 11 11 11 11
8 7 6 6 7 7 7 6 6 6 6 6 6 6 6 6 7 7 7 8 8 8 9 9 9 9 9 9 9 10 10 10 10 10 10 10 10 10 10 10 10 10 10 10 10 10 10 10 10
7 7 7 6 6 7 7 7 7 6 6 6 6 6 6 6 6 7 7 7 7 8 8 8 9 9 9 9 9 9 9 9 9 10 10 10 10 10 10 10 10 10 10 10 10 10 10 10 10
8 7 7 7 6 6 6 6 7 6 6 6 6 6 6 6 6 6 6 7 7 7 7 8 8 8 8 8 9 9 9 9 9 9 9 9 9 9 9 9 9 9 9 9 9 9 9 9 9
Wind_Speed
8 8 2 4 3 2 7 7 5 4 5 5 3 3 5 6 5 5 0 7 12 16 18 22 21 20 20 19 19 19 19 19 19 19 20 20 20 20 19 19 18 18 18 18 18 17 17 17 16
6 3 4 4 4 6 7 7 9 10 6 5 6 4 3 4 1 2 2 7 14 16 17 19 21 20 20 20 19 20 20 20 20 19 20 20 20 20 19 19 18 18 18 18 17 17 16 15 14
5 2 4 3 6 8 7 5 8 8 8 6 5 4 3 2 1 2 3 9 13 13 16 19 21 20 20 19 19 19 20 20 19 19 20 20 20 20 19 19 18 18 18 18 17 16 15 14 12
3 4 3 3 11 8 6 5 3 6 6 4 3 5 4 2 1 2 6 9 12 11 14 18 22 21 19 19 19 19 19 20 19 19 20 20 20 20 19 19 19 18 18 17 16 15 14 12 11
4 4 2 6 9 6 6 8 8 8 6 5 4 4 4 5 2 6 8 9 10 9 11 17 21 21 20 19 19 19 19 20 20 20 20 20 21 20 20 20 19 19 18 17 16 14 13 11 9
3 3 4 8 9 5 6 7 7 9 8 6 4 4 3 3 4 4 6 7 8 8 9 15 20 20 20 19 19 19 19 20 20 20 20 20 21 21 20 20 19 19 18 16 15 14 12 10 9
4 3 5 5 4 6 7 4 5 6 7 6 4 4 3 2 3 2 4 5 5 6 7 9 14 17 18 19 19 19 19 19 19 19 19 20 21 21 21 20 20 19 18 16 15 13 12 9 7
4 3 4 4 5 6 3 3 3 4 7 6 2 3 3 3 3 3 4 5 5 4 5 6 10 12 13 15 18 19 19 19 19 19 19 19 20 21 21 20 19 18 17 16 14 13 11 8 6
4 2 6 5 5 4 2 4 5 4 4 4 3 3 4 4 2 3 2 2 4 4 4 5 7 9 11 13 15 16 17 18 18 18 19 19 17 18 18 18 19 18 17 15 14 12 10 8 5
4 5 8 5 4 4 5 6 6 6 6 5 5 5 5 4 3 1 2 3 4 5 5 5 7 7 9 11 12 12 13 14 15 15 17 16 15 15 16 18 19 18 16 15 13 12 9 7 5
6 7 6 7 7 7 8 8 6 7 10 7 7 9 8 6 4 3 4 5 5 6 5 4 5 7 7 6 8 8 9 11 12 14 16 15 13 13 13 13 14 14 14 11 11 9 8 7 6
5 7 7 7 7 7 9 8 9 11 13 10 9 8 8 8 7 6 6 5 5 5 6 6 5 6 7 7 7 7 7 7 8 12 15 13 8 8 9 9 10 11 11 9 8 7 7 7 7
7 7 8 10 10 10 10 11 11 14 14 11 10 9 10 10 9 8 7 6 5 6 7 7 6 7 7 7 7 8 8 8 10 12 14 14 9 8 8 8 10 10 10 9 7 6 6 6 6
5 6 8 10 11 9 12 14 10 14 11 11 11 11 11 12 11 8 7 7 7 7 8 8 8 7 8 8 8 8 8 9 10 11 13 15 12 9 8 7 7 9 11 10 9 7 5 4 4
3 5 9 9 8 6 6 11 11 13 10 12 12 12 12 12 10 10 9 9 8 8 8 8 8 8 9 9 9 8 8 9 8 10 13 14 14 12 9 8 7 8 11 10 8 6 5 3 3
2 3 5 6 5 5 5 12 10 8 8 11 11 11 11 11 10 10 9 9 9 8 8 8 7 8 9 9 8 7 7 8 8 10 12 13 14 14 10 8 7 9 10 7 5 5 4 4 3
2 4 6 6 4 3 5 11 10 8 9 11 11 10 10 10 9 9 8 9 8 8 8 7 7 8 8 8 7 7 7 7 7 8 9 12 13 14 10 7 7 10 7 5 6 4 4 4 4
5 5 6 6 4 4 8 14 13 9 8 10 10 9 9 10 10 8 8 8 7 8 8 7 7 8 7 6 5 5 6 6 6 6 8 11 11 13 10 7 8 8 6 6 5 5 3 3 4
6 7 10 9 7 6 10 13 13 9 7 7 7 7 7 8 8 6 6 6 6 8 8 8 8 8 7 6 6 6 7 6 6 6 8 10 10 11 9 7 8 8 8 8 7 4 4 3 3
9 9 9 9 5 5 7 11 10 9 7 6 6 6 6 5 5 4 4 5 6 8 7 7 8 8 8 7 6 5 5 5 5 5 7 9 10 11 10 9 9 8 7 8 7 5 3 3 4
8 8 7 6 7 4 5 7 5 6 4 4 4 4 3 4 4 3 3 4 5 5 7 7 7 7 7 6 5 5 4 3 4 4 5 7 9 9 9 9 8 8 8 8 8 7 7 5 3
6 6 6 5 4 3 2 3 5 6 6 6 6 4 2 1 1 1 1 2 3 3 4 5 7 6 6 7 6 7 6 5 4 4 4 5 6 7 8 8 8 8 7 8 8 7 5 7 5
5 4 4 4 3 3 2 1 6 7 7 9 7 5 2 2 2 2 1 1 1 2 4 5 5 5 5 6 7 7 6 4 3 4 5 5 6 7 8 8 8 7 7 7 7 6 6 5 6
3 2 3 1 0 2 3 1 4 5 8 8 8 7 6 5 4 3 3 3 2 2 3 5 6 5 5 5 5 6 6 5 5 5 5 5 5 5 7 7 7 7 6 7 7 7 7 6 6
1 1 3 4 2 1 2 1 2 6 7 6 6 7 6 5 5 4 4 4 4 4 4 5 6 5 5 5 4 4 5 5 5 5 5 5 4 4 7 7 7 6 6 7 6 7 7 7 7
1 1 1 0 1 2 3 2 3 6 6 6 6 6 6 6 6 6 6 5 4 5 5 5 6 5 4 4 4 3 3 3 2 3 4 5 4 4 6 6 7 7 7 7 6 6 6 6 7
1 1 2 2 0 1 2 2 3 7 7 8 8 9 9 8 8 7 7 6 6 5 5 5 6 6 5 4 4 3 2 2 1 2 2 3 2 3 5 6 6 6 7 7 7 6 6 6 7
2 1 1 1 1 1 2 2 3 5 6 7 8 8 9 9 9 8 8 8 7 6 6 7 7 6 5 4 4 3 2 2 1 2 2 2 2 2 4 4 5 6 6 6 6 6 6 6 6
3 2 0 1 1 2 0 2 3 1 2 4 6 7 8 9 9 9 9 9 9 9 9 8 7 6 5 5 4 4 4 3 3 3 2 1 1 2 3 4 5 5 6 6 6 7 6 7 7
1 1 0 1 1 1 2 2 4 2 3 5 6 7 7 8 8 9 10 10 10 10 10 9 8 7 6 5 5 5 4 4 3 2 2 2 1 1 2 2 3 5 5 6 7 7 8 9 9
Wind_Direction
344 344 43 59 75 204 232 232 234 233 227 217 245 244 223 218 212 233 277 142 143 153 161 164 164 163 161 161 159 157 156 156 154 152 150 146 143 141 140 138 136 133 128 124 120 117 116 114 111
347 358 60 77 148 212 242 226 230 245 253 307 304 282 273 249 210 127 120 152 147 153 159 164 164 163 162 161 161 160 160 160 158 157 155 151 149 146 144 142 139 135 130 126 122 120 120 118 113
344 40 94 123 191 205 220 222 221 253 279 287 293 293 262 245 143 164 181 151 146 152 159 164 164 164 164 163 162 162 163 162 160 160 158 156 153 150 149 146 142 136 131 128 126 125 125 121 114
47 54 71 188 227 221 221 267 312 311 309 291 294 298 294 310 198 167 135 139 145 152 158 164 165 166 166 164 164 165 165 165 163 162 160 159 157 153 151 147 142 137 134 132 131 131 130 126 116
65 92 167 233 236 241 257 282 300 297 290 295 311 280 288 330 50 111 125 131 141 155 161 166 167 168 168 166 165 166 166 165 164 163 162 162 159 155 151 146 143 141 139 138 138 138 137 132 122
70 97 189 233 240 247 257 269 287 284 280 291 293 269 267 351 56 110 125 133 142 153 162 167 169 169 169 168 168 167 166 165 165 166 165 163 160 156 152 150 148 146 145 144 143 143 143 140 131
125 147 217 234 244 253 255 267 264 277 282 276 272 260 266 342 4 51 110 120 132 146 158 166 168 171 171 170 169 167 166 167 167 166 166 163 160 156 155 154 153 151 150 149 148 148 150 148 143
143 151 232 230 227 246 263 287 271 282 274 280 277 238 252 293 337 40 90 108 121 135 155 167 165 165 169 169 169 167 166 165 165 164 160 158 156 156 156 156 156 155 155 155 155 156 160 159 156
121 181 228 224 217 239 319 324 304 293 269 286 280 260 275 307 354 57 82 112 133 149 162 174 170 165 167 168 169 165 164 163 162 160 157 154 154 155 158 159 159 158 159 160 161 164 168 170 175
149 211 230 230 237 268 291 291 297 307 293 283 289 297 310 325 347 356 206 196 177 176 177 175 174 171 168 172 166 165 163 161 161 161 157 156 156 159 161 162 162 162 164 166 168 171 175 180 192
187 217 238 251 259 268 275 279 271 266 269 259 270 288 298 302 297 262 243 232 215 189 181 177 180 175 173 170 165 165 162 159 160 163 161 159 157 159 160 163 165 165 167 170 173 175 182 191 202
230 241 245 258 263 264 264 269 268 247 252 253 251 264 274 275 270 251 242 242 234 209 193 185 189 185 179 174 176 167 165 164 165 169 166 162 161 162 165 169 170 169 174 174 177 181 192 200 210
243 263 269 269 270 264 265 259 261 260 261 261 256 259 261 261 260 251 241 225 222 217 201 191 193 196 186 179 183 174 172 172 172 171 174 172 166 166 170 173 174 176 178 181 182 186 194 204 214
252 268 281 277 270 264 258 264 259 261 265 264 258 257 255 253 250 250 243 229 218 221 208 191 192 198 191 186 185 176 176 175 173 175 178 177 172 172 173 174 177 181 184 186 187 189 192 204 202
285 291 291 270 257 252 257 268 246 257 261 258 259 258 253 249 246 240 233 225 217 217 209 195 193 192 187 185 187 177 177 175 176 177 177 178 177 175 174 174 179 186 186 185 187 192 191 193 195
298 286 281 268 242 241 222 265 263 257 255 254 254 256 254 251 243 239 234 225 213 208 200 193 194 188 187 182 182 176 175 174 177 177 176 178 180 178 174 176 184 187 185 182 184 187 183 192 189
263 257 258 275 241 241 230 268 276 272 257 256 256 255 255 253 247 237 231 224 211 199 190 185 187 185 183 175 174 172 175 179 176 174 177 180 182 182 178 180 184 184 182 184 190 188 180 184 185
238 249 262 264 263 265 266 272 283 280 258 251 253 253 252 251 247 233 223 220 207 194 183 179 181 180 178 169 159 164 174 182 178 176 179 179 183 184 180 180 183 183 183 185 185 180 179 180 176
247 260 274 276 268 267 265 277 288 288 279 267 258 249 248 250 251 231 216 213 195 185 180 184 180 177 170 169 168 173 183 183 184 184 182 182 185 185 183 182 182 184 189 188 183 176 176 182 158
247 262 273 285 277 273 278 288 295 297 275 259 257 254 251 249 242 229 218 208 195 187 187 189 184 180 176 180 175 174 172 179 182 185 185 188 189 188 188 184 187 186 186 183 183 171 171 182 173
253 244 253 271 307 296 300 305 311 312 308 309 307 278 251 229 229 221 216 207 189 184 183 188 183 180 178 174 160 154 154 153 173 189 192 196 191 191 190 187 185 186 186 189 189 181 177 186 198
263 242 239 266 301 306 344 314 321 331 347 355 348 336 317 261 205 147 195 197 188 188 173 172 167 170 174 170 170 170 178 182 188 192 196 201 193 188 188 187 187 188 188 190 192 186 182 176 189
238 256 253 260 264 296 312 248 314 339 355 355 355 355 2 51 75 63 58 152 173 161 155 162 149 152 163 163 172 175 179 180 176 177 186 199 197 192 193 186 185 186 189 192 192 187 185 185 189
236 295 280 260 130 328 317 186 325 342 339 348 5 17 26 39 52 44 30 44 65 104 134 136 137 139 136 141 156 169 168 168 171 178 186 199 200 197 199 191 188 190 190 194 196 194 190 193 195
104 15 18 18 22 301 328 68 324 329 340 355 9 21 24 31 44 43 32 39 56 90 113 122 126 124 120 120 131 149 156 161 174 183 191 196 199 203 202 196 194 194 195 197 197 197 200 197 197
256 179 142 153 285 322 354 7 323 332 355 13 27 35 36 41 44 44 37 40 54 74 91 101 101 100 100 107 112 121 125 152 174 192 195 201 202 203 198 195 198 199 196 197 198 203 210 203 204
291 282 202 147 62 11 344 342 339 4 21 28 28 33 33 39 42 38 35 42 53 60 69 92 98 91 85 89 91 94 99 121 158 175 172 187 190 197 193 195 200 202 201 201 198 207 210 206 210
205 225 76 108 114 44 344 343 344 350 13 23 29 32 32 36 34 33 40 40 47 52 58 72 81 84 77 74 77 68 67 86 108 113 105 156 180 196 183 189 199 206 208 205 202 209 210 211 217
343 357 38 129 135 137 71 320 330 327 29 40 41 39 37 41 39 35 37 39 46 49 52 56 60 67 66 64 67 64 56 65 69 65 56 67 168 193 191 201 204 211 213 211 211 214 208 213 218
219 304 336 104 18 82 122 326 349 52 60 60 52 47 43 44 41 38 39 40 44 45 45 46 48 55 56 59 62 59 53 57 61 47 33 35 25 217 205 217 223 223 221 218 216 219 217 215 216
Height
1504 1506 1508 1511 1515 1519 1517 1509 1502 1499 1497 1495 1495 1494 1494 1494 1495 1497 1490 1487 1489 1491 1494 1496 1499 1502 1504 1507 1509 1511 1513 1516 1518 1521 1523 1525 1527 1529 1530 1532 1534 1535 1537 1538 1539 1540 1541 1542 1543
1504 1506 1509 1510 1517 1520 1515 1504 1500 1496 1494 1493 1493 1492 1491 1490 1490 1489 1488 1488 1490 1492 1494 1496 1499 1502 1504 1506 1508 1511 1513 1515 1518 1521 1523 1525 1527 1529 1531 1533 1534 1536 1538 1539 1541 1542 1543 1544 1544
1503 1505 1508 1510 1514 1513 1507 1497 1496 1494 1493 1493 1492 1491 1490 1489 1488 1487 1488 1489 1490 1492 1494 1496 1498 1501 1504 1506 1508 1510 1513 1515 1518 1520 1523 1525 1527 1529 1531 1533 1535 1537 1538 1540 1542 1543 1544 1545 1546
1503 1505 1507 1510 1506 1502 1498 1494 1494 1494 1493 1492 1492 1490 1489 1489 1488 1487 1487 1489 1490 1492 1494 1496 1498 1501 1503 1505 1508 1510 1512 1515 1517 1520 1522 1525 1527 1529 1531 1533 1535 1537 1539 1541 1542 1544 1545 1546 1547
1502 1504 1508 1507 1502 1498 1495 1493 1493 1494 1493 1491 1491 1489 1487 1488 1487 1487 1487 1489 1490 1492 1494 1496 1498 1500 1503 1505 1507 1509 1512 1514 1517 1519 1522 1525 1527 1529 1531 1533 1535 1537 1539 1541 1543 1545 1546 1547 1548
1502 1503 1509 1505 1499 1495 1493 1493 1493 1492 1491 1489 1489 1487 1486 1486 1486 1486 1487 1488 1490 1491 1493 1495 1497 1500 1502 1504 1507 1509 1511 1514 1516 1519 1521 1524 1527 1529 1531 1534 1536 1538 1540 1542 1544 1545 1547 1548 1549
1502 1505 1505 1501 1498 1496 1492 1491 1492 1490 1489 1488 1488 1486 1484 1485 1485 1486 1486 1488 1489 1490 1492 1494 1496 1499 1501 1504 1506 1508 1511 1513 1516 1518 1521 1523 1526 1529 1531 1534 1536 1538 1540 1542 1544 1546 1547 1548 1549
1500 1503 1502 1499 1496 1494 1490 1489 1489 1489 1487 1486 1486 1484 1483 1484 1484 1484 1485 1487 1488 1489 1491 1493 1495 1497 1500 1502 1505 1507 1510 1512 1515 1518 1520 1523 1525 1528 1531 1533 1536 1538 1540 1542 1544 1546 1547 1549 1550
1499 1504 1501 1497 1493 1490 1488 1488 1488 1487 1485 1484 1483 1483 1483 1482 1482 1483 1484 1485 1486 1488 1489 1491 1493 1495 1498 1501 1503 1506 1509 1511 1514 1517 1519 1522 1524 1527 1530 1533 1535 1538 1540 1542 1544 1546 1547 1549 1550
1497 1501 1495 1491 1489 1489 1488 1487 1486 1485 1482 1481 1480 1479 1480 1480 1480 1481 1481 1482 1483 1485 1487 1489 1491 1493 1496 1498 1502 1504 1507 1510 1512 1515 1518 1520 1523 1526 1529 1532 1535 1537 1540 1541 1543 1545 1547 1548 1549
1494 1494 1490 1488 1487 1487 1486 1484 1484 1483 1480 1478 1477 1476 1475 1476 1476 1477 1479 1479 1480 1481 1483 1485 1489 1491 1493 1496 1499 1502 1505 1508 1511 1514 1516 1519 1522 1525 1527 1530 1533 1536 1538 1540 1542 1544 1546 1547 1549
1491 1488 1487 1485 1485 1485 1483 1482 1480 1478 1475 1475 1474 1473 1472 1472 1473 1473 1475 1476 1477 1478 1480 1482 1486 1488 1490 1493 1497 1500 1502 1505 1508 1511 1514 1517 1520 1523 1525 1528 1531 1534 1537 1539 1541 1543 1545 1546 1548
1489 1486 1485 1483 1482 1481 1480 1477 1476 1471 1469 1470 1469 1469 1468 1468 1469 1469 1471 1472 1473 1475 1477 1479 1482 1485 1488 1490 1494 1497 1500 1503 1506 1509 1512 1515 1517 1520 1524 1527 1530 1532 1535 1537 1540 1542 1543 1545 1546
1486 1485 1483 1480 1478 1477 1475 1472 1472 1464 1465 1464 1464 1463 1464 1464 1464 1465 1466 1467 1469 1471 1473 1476 1479 1482 1485 1487 1490 1494 1498 1501 1504 1507 1510 1513 1515 1518 1522 1525 1528 1530 1533 1536 1538 1540 1542 1543 1544
1485 1484 1481 1476 1474 1473 1472 1468 1464 1460 1461 1460 1459 1458 1458 1458 1459 1460 1461 1463 1465 1467 1469 1471 1475 1478 1480 1483 1487 1490 1494 1497 1500 1504 1507 1510 1513 1516 1519 1522 1525 1528 1531 1534 1536 1538 1540 1541 1542
1484 1485 1484 1475 1472 1470 1474 1466 1458 1457 1457 1455 1454 1453 1453 1452 1453 1454 1456 1458 1460 1462 1464 1467 1470 1473 1476 1479 1483 1486 1490 1494 1497 1501 1504 1508 1511 1514 1517 1520 1523 1526 1528 1531 1533 1535 1537 1539 1540
1486 1487 1482 1475 1469 1468 1469 1463 1454 1453 1452 1450 1448 1448 1447 1447 1447 1449 1451 1453 1454 1457 1460 1462 1466 1469 1472 1475 1479 1483 1487 1490 1494 1497 1500 1504 1508 1511 1514 1517 1520 1523 1525 1528 1530 1532 1534 1536 1537
1486 1484 1478 1474 1468 1467 1466 1459 1451 1449 1447 1445 1443 1443 1443 1442 1441 1443 1445 1447 1449 1452 1455 1458 1461 1465 1468 1471 1475 1479 1483 1486 1490 1493 1496 1500 1504 1507 1510 1514 1517 1520 1522 1525 1527 1529 1531 1533 1535
1479 1478 1476 1470 1466 1465 1460 1454 1448 1445 1443 1441 1439 1439 1438 1437 1437 1439 1440 1442 1445 1447 1450 1454 1457 1461 1464 1466 1470 1474 1478 1482 1486 1489 1493 1496 1500 1503 1507 1510 1513 1516 1518 1520 1523 1526 1528 1530 1532
1477 1476 1472 1466 1462 1461 1457 1452 1446 1442 1439 1437 1436 1435 1433 1433 1434 1435 1437 1438 1440 1443 1446 1449 1453 1456 1460 1463 1467 1471 1474 1478 1482 1485 1489 1492 1496 1499 1503 1505 1508 1511 1514 1516 1519 1522 1524 1526 1528
1472 1472 1469 1466 1462 1459 1458 1452 1446 1441 1437 1435 1433 1431 1430 1430 1431 1431 1433 1434 1436 1438 1442 1445 1449 1453 1456 1460 1464 1468 1471 1474 1479 1482 1485 1488 1492 1495 1498 1502 1504 1507 1510 1512 1514 1517 1519 1521 1523
1469 1464 1463 1463 1464 1463 1461 1460 1449 1443 1438 1434 1432 1431 1429 1430 1430 1431 1432 1432 1434 1436 1439 1442 1446 1450 1454 1457 1460 1463 1467 1470 1473 1477 1481 1484 1488 1491 1494 1497 1500 1502 1505 1508 1510 1512 1514 1516 1518
1465 1461 1462 1462 1463 1464 1461 1462 1455 1446 1441 1437 1434 1431 1430 1429 1429 1430 1431 1432 1433 1434 1437 1440 1444 1447 1451 1454 1457 1460 1464 1467 1471 1474 1477 1480 1483 1486 1490 1492 1495 1498 1501 1503 1505 1507 1509 1511 1513
1462 1462 1461 1461 1463 1465 1461 1463 1459 1452 1446 1441 1437 1433 1431 1431 1430 1430 1431 1432 1432 1434 1436 1439 1442 1446 1449 1451 1454 1457 1460 1464 1467 1470 1472 1475 1478 1482 1485 1488 1491 1493 1496 1498 1500 1502 1504 1506 1508
1463 1466 1469 1468 1468 1466 1459 1460 1460 1453 1448 1445 1441 1437 1435 1433 1432 1432 1432 1432 1433 1434 1436 1438 1441 1444 1448 1450 1452 1455 1458 1461 1464 1466 1469 1471 1474 1476 1479 1483 1485 1488 1491 1493 1495 1497 1499 1500 1502
1463 1465 1470 1470 1469 1465 1461 1461 1461 1455 1450 1446 1443 1441 1438 1436 1435 1434 1434 1434 1434 1434 1436 1438 1441 1444 1446 1449 1451 1453 1456 1458 1461 1463 1465 1467 1469 1472 1475 1477 1480 1483 1486 1488 1490 1492 1493 1495 1496
1462 1463 1463 1468 1468 1470 1465 1463 1460 1455 1452 1449 1446 1443 1441 1439 1438 1437 1436 1435 1435 1436 1437 1438 1441 1444 1446 1448 1450 1452 1454 1456 1458 1459 1461 1463 1465 1468 1470 1472 1475 1478 1481 1483 1484 1486 1487 1489 1490
1461 1462 1465 1466 1467 1466 1466 1465 1464 1459 1456 1452 1449 1447 1445 1443 1441 1439 1438 1437 1437 1437 1438 1439 1441 1444 1445 1447 1449 1451 1452 1453 1455 1457 1458 1459 1461 1464 1465 1467 1470 1473 1475 1477 1478 1479 1481 1482 1483
1463 1462 1463 1465 1465 1467 1468 1469 1463 1461 1458 1456 1454 1452 1449 1447 1445 1443 1441 1441 1440 1440 1440 1441 1443 1445 1446 1447 1448 1450 1450 1451 1453 1454 1455 1456 1458 1459 1461 1463 1465 1468 1469 1471 1472 1473 1473 1475 1476
1461 1461 1462 1464 1467 1469 1471 1473 1463 1461 1460 1458 1457 1455 1454 1451 1450 1448 1446 1444 1444 1443 1443 1444 1445 1445 1446 1447 1448 1449 1449 1450 1451 1452 1453 1454 1455 1456 1457 1458 1460 1462 1463 1464 1465 1466 1467 1468 1468